Location: Lafig�re
(44.4503°N, 4.0357°E)
Time: 08:18:13
(UTC+00:00)

Cosmos 1092 Rocket - Pass Details

Date: 01 February 2021
Orbit: 954 x 994 km, 83.0° (Epoch: 08 March)

Event Time Altitude Azimuth Distance (km) Brightness Sun altitude
Rises 04:50:36 0° 348° (NNW) 3,650 6.9 -23.7°
Reaches altitude 10° 04:53:07 10° 346° (NNW) 2,703 6.2 -23.2°
Maximum altitude 04:59:12 63° 267° (W) 1,073 3.9 -22.1°
Drops below altitude 10° 05:05:18 10° 188° (S) 2,709 6.3 -21.0°
Sets 05:07:50 0° 185° (S) 3,658 7.0 -20.6°
